Location: Fort Wayne
(41.1310°N, 85.1290°W)
Time: 19:25:39
(UTC-05:00)

SR - Visible Passes

Search period start: 22 January 2017 00:00
Search period end: 01 February 2017 00:00
Orbit: 576 x 881 km, 66.7° (Epoch: 21 January)

Date Brightness Start Highest point End Pass type
(mag) Time Alt. Az. Time Alt. Az. Time Alt. Az.
22 Jan ? 04:49:38 14° NNE 04:49:38 14° NNE 04:50:21 10° NNE visible
22 Jan ? 06:29:05 15° NNW 06:29:05 15° NNW 06:31:14 10° N visible
23 Jan ? 05:41:17 16° N 05:41:17 16° N 05:42:37 10° N visible
24 Jan ? 04:53:25 11° NNE 04:53:25 11° NNE 04:53:34 10° NNE visible
25 Jan ? 05:44:55 11° N 05:44:55 11° N 05:45:14 10° N visible
